Location: �terpigny
(49.8910°N, 2.9249°E)
Time: 05:26:43
(UTC+00:00)

Cosmos 614 Rocket - Pass Details

Date: 02 June 2022
Orbit: 732 x 764 km, 74.1° (Epoch: 06 July)

Event Time Altitude Azimuth Distance (km) Brightness Sun altitude
Rises 00:15:32 0° 337° (NNW) 3,222 8.3 -17.7°
Reaches altitude 10° 00:17:56 10° 340° (NNW) 2,297 7.4 -17.6°
Maximum altitude 00:23:08 68° 64° (ENE) 824 4.2 -17.5°
Enters shadow 00:26:54 19° 144° (SE) 1,767 5.5 -17.4°
